When you browse on this site, cookies collect data to enhance your experience and personalize the content and advertising you see.
Visit our Privacy Policy to learn more. By continuing to use the site, you agree to this use of cookies and data.
  • In Portugal
  • List of Countries
  • For 7 days
  • Water Temperature
  • Satellite Maps
  • Weather Map
  • Weather Widgets
  • user-avatar
    Login

    Hourly Weather Sofia

    Today, 19 February, Tuesday

    Time Temperature Precipitation Wind Pressure Humidity
    00:00 +6°C° 0 mm 1 mps 714 mmHg 66%
    01:00 +6°C° 0 mm 1 mps 714 mmHg 67%
    02:00 +6°C° 0 mm 1 mps 714 mmHg 68%
    03:00 +5°C° 0 mm 1 mps 714 mmHg 69%
    04:00 +5°C° 0 mm 1 mps 714 mmHg 70%
    05:00 +5°C° 0 mm 1 mps 714 mmHg 71%
    06:00 +5°C° 0 mm 1 mps 714 mmHg 71%
    07:00 +5°C° 0 mm 1 mps 714 mmHg 70%
    08:00 +5°C° 0 mm 1 mps 714 mmHg 70%
    09:00 +7°C° 0 mm 1 mps 714 mmHg 62%
    10:00 +9°C° 0 mm 1 mps 714 mmHg 54%
    11:00 +11°C° 0 mm 1 mps 714 mmHg 46%
    12:00 +12°C° 0 mm 1 mps 714 mmHg 43%
    13:00 +14°C° 0 mm 1 mps 714 mmHg 39%
    14:00 +15°C° 0 mm 1 mps 713 mmHg 35%
    15:00 +14°C° 0 mm 1 mps 713 mmHg 37%
    16:00 +14°C° 0 mm 1 mps 713 mmHg 40%
    17:00 +13°C° 0 mm 1 mps 713 mmHg 42%
    18:00 +12°C° 0 mm 1 mps 713 mmHg 47%
    19:00 +10°C° 0 mm 1 mps 713 mmHg 51%
    20:00 +9°C° 0 mm 1 mps 712 mmHg 56%
    21:00 +8°C° 0 mm 1 mps 712 mmHg 59%
    22:00 +8°C° 0 mm 1 mps 712 mmHg 62%
    23:00 +7°C° 0 mm 1 mps 712 mmHg 65%

    Tomorrow, 20 February, Wednesday

    Time Temperature Precipitation Wind Pressure Humidity
    00:00 +6°C° 0 mm 1 mps 712 mmHg 66%
    01:00 +6°C° 0 mm 1 mps 712 mmHg 68%
    02:00 +6°C° 0 mm 1 mps 712 mmHg 70%
    03:00 +5°C° 0 mm 1 mps 712 mmHg 72%
    04:00 +5°C° 0 mm 1 mps 712 mmHg 73%
    05:00 +4°C° 0 mm 1 mps 712 mmHg 75%
    06:00 +4°C° 0 mm 1 mps 712 mmHg 75%
    07:00 +4°C° 0 mm 1 mps 712 mmHg 74%
    08:00 +4°C° 0 mm 1 mps 712 mmHg 74%
    09:00 +6°C° 0 mm 1 mps 712 mmHg 65%
    10:00 +7°C° 0 mm 2 mps 713 mmHg 56%
    11:00 +10°C° 0 mm 2 mps 713 mmHg 47%
    12:00 +10°C° 0 mm 3 mps 713 mmHg 46%
    13:00 +11°C° 0 mm 3 mps 713 mmHg 45%
    14:00 +12°C° 0 mm 4 mps 713 mmHg 43%
    15:00 +11°C° 0 mm 4 mps 712 mmHg 46%
    16:00 +11°C° 0 mm 3 mps 712 mmHg 49%
    17:00 +10°C° 0 mm 3 mps 712 mmHg 51%
    18:00 +9°C° 0 mm 2 mps 713 mmHg 59%
    19:00 +7°C° 0 mm 2 mps 713 mmHg 66%
    20:00 +6°C° 0 mm 2 mps 714 mmHg 74%
    21:00 +7°C° 0 mm 1 mps 714 mmHg 77%
    22:00 +6°C° 0 mm 1 mps 714 mmHg 80%
    23:00 +6°C° 0 mm 1 mps 715 mmHg 83%

    Day after tomorrow, 21 February, Thursday

    Time Temperature Precipitation Wind Pressure Humidity
    00:00 +5°C° 0 mm 1 mps 715 mmHg 84%
    01:00 +5°C° 0 mm 1 mps 715 mmHg 85%
    02:00 +5°C° 0 mm 1 mps 715 mmHg 87%
    03:00 +4°C° 0 mm 1 mps 715 mmHg 87%
    04:00 +4°C° 0 mm 1 mps 715 mmHg 88%
    05:00 +4°C° 0 mm 1 mps 715 mmHg 88%
    06:00 +4°C° 0 mm 1 mps 715 mmHg 87%
    07:00 +4°C° 0 mm 1 mps 716 mmHg 86%
    08:00 +4°C° 0 mm 1 mps 716 mmHg 85%
    09:00 +4°C° 0 mm 2 mps 716 mmHg 73%
    10:00 +6°C° 0 mm 2 mps 717 mmHg 61%
    11:00 +8°C° 0 mm 3 mps 717 mmHg 49%
    12:00 +9°C° 0 mm 3 mps 717 mmHg 46%
    13:00 +10°C° 0 mm 3 mps 716 mmHg 43%
    14:00 +10°C° 0 mm 3 mps 716 mmHg 40%
    15:00 +10°C° 0 mm 3 mps 716 mmHg 43%
    16:00 +10°C° 0 mm 3 mps 716 mmHg 46%
    17:00 +9°C° 0 mm 3 mps 715 mmHg 49%
    18:00 +8°C° 0 mm 2 mps 716 mmHg 55%
    19:00 +7°C° 0 mm 2 mps 716 mmHg 60%
    20:00 +5°C° 0 mm 2 mps 716 mmHg 66%
    21:00 +5°C° 0 mm 2 mps 716 mmHg 67%
    22:00 +5°C° 0 mm 2 mps 716 mmHg 68%
    23:00 +5°C° 0 mm 1 mps 716 mmHg 69%

    22 February, Friday

    Time Temperature Precipitation Wind Pressure Humidity
    00:00 +4°C° 0 mm 2 mps 715 mmHg 70%
    01:00 +4°C° 0 mm 2 mps 715 mmHg 71%
    02:00 +4°C° 0 mm 2 mps 715 mmHg 71%
    03:00 +4°C° 0.1 mm 2 mps 714 mmHg 72%
    04:00 +4°C° 0.1 mm 2 mps 714 mmHg 73%
    05:00 +4°C° 0.1 mm 2 mps 713 mmHg 74%
    06:00 +4°C° 0.2 mm 2 mps 713 mmHg 75%
    07:00 +4°C° 0.2 mm 2 mps 713 mmHg 77%
    08:00 +4°C° 0.2 mm 2 mps 712 mmHg 79%
    09:00 +5°C° 0.1 mm 2 mps 712 mmHg 76%
    10:00 +5°C° 0.1 mm 3 mps 712 mmHg 73%
    11:00 +7°C° 0.1 mm 3 mps 711 mmHg 70%
    12:00 +6°C° 0.2 mm 4 mps 711 mmHg 69%
    13:00 +7°C° 0.2 mm 4 mps 710 mmHg 68%
    14:00 +7°C° 0.2 mm 5 mps 710 mmHg 67%
    15:00 +6°C° 0.4 mm 4 mps 709 mmHg 69%
    16:00 +6°C° 0.4 mm 4 mps 709 mmHg 72%
    17:00 +5°C° 0.4 mm 3 mps 709 mmHg 75%
    18:00 +5°C° 0.5 mm 3 mps 709 mmHg 79%
    19:00 +5°C° 0.5 mm 2 mps 709 mmHg 82%
    20:00 +6°C° 0.5 mm 1 mps 709 mmHg 86%
    21:00 +5°C° 0.5 mm 2 mps 710 mmHg 88%
    22:00 +5°C° 0.5 mm 2 mps 710 mmHg 89%
    23:00 +5°C° 0.5 mm 2 mps 711 mmHg 91%

    23 February, Saturday

    Time Temperature Precipitation Wind Pressure Humidity
    00:00 +2°C° 0.8 mm 3 mps 711 mmHg 89%
    01:00 0°C° 0.8 mm 4 mps 712 mmHg 88%
    02:00 -1°C° 0.8 mm 4 mps 713 mmHg 87%
    03:00 -4°C° 0.4 mm 5 mps 713 mmHg 86%
    04:00 -6°C° 0.4 mm 5 mps 714 mmHg 85%
    05:00 -7°C° 0.4 mm 5 mps 714 mmHg 85%
    06:00 -8°C° 0.1 mm 5 mps 715 mmHg 83%
    07:00 -10°C° 0.1 mm 5 mps 715 mmHg 81%
    08:00 -10°C° 0.1 mm 5 mps 716 mmHg 79%
    09:00 -8°C° 0 mm 5 mps 716 mmHg 69%
    10:00 -8°C° 0 mm 5 mps 717 mmHg 59%
    11:00 -7°C° 0 mm 5 mps 717 mmHg 49%
    12:00 -6°C° 0 mm 5 mps 717 mmHg 48%
    13:00 -6°C° 0 mm 5 mps 717 mmHg 46%
    14:00 -5°C° 0 mm 6 mps 717 mmHg 44%
    15:00 -6°C° 0 mm 5 mps 717 mmHg 47%
    16:00 -6°C° 0 mm 5 mps 716 mmHg 50%
    17:00 -7°C° 0 mm 5 mps 716 mmHg 53%
    18:00 -8°C° 0 mm 4 mps 716 mmHg 57%
    19:00 -8°C° 0 mm 3 mps 717 mmHg 61%
    20:00 -7°C° 0 mm 2 mps 717 mmHg 65%
    21:00 -8°C° 0 mm 3 mps 717 mmHg 64%
    22:00 -8°C° 0 mm 3 mps 717 mmHg 64%
    23:00 -8°C° 0 mm 3 mps 717 mmHg 63%

    24 February, Sunday

    Time Temperature Precipitation Wind Pressure Humidity
    00:00 -9°C° 0 mm 3 mps 717 mmHg 67%
    01:00 -9°C° 0 mm 3 mps 717 mmHg 70%
    02:00 -9°C° 0 mm 3 mps 717 mmHg 74%
    03:00 -9°C° 0 mm 3 mps 717 mmHg 74%
    04:00 -9°C° 0 mm 3 mps 717 mmHg 74%
    05:00 -10°C° 0 mm 3 mps 716 mmHg 74%
    06:00 -10°C° 0 mm 3 mps 717 mmHg 74%
    07:00 -10°C° 0 mm 3 mps 717 mmHg 74%
    08:00 -10°C° 0 mm 3 mps 717 mmHg 73%
    09:00 -10°C° 0 mm 4 mps 717 mmHg 69%
    10:00 -9°C° 0 mm 4 mps 717 mmHg 64%
    11:00 -8°C° 0 mm 5 mps 717 mmHg 59%
    12:00 -7°C° 0 mm 5 mps 717 mmHg 58%
    13:00 -7°C° 0 mm 5 mps 717 mmHg 58%
    14:00 -6°C° 0 mm 6 mps 716 mmHg 57%
    15:00 -7°C° 0 mm 5 mps 716 mmHg 59%
    16:00 -7°C° 0 mm 5 mps 716 mmHg 61%
    17:00 -8°C° 0 mm 5 mps 716 mmHg 63%
    18:00 -8°C° 0 mm 5 mps 716 mmHg 67%
    19:00 -9°C° 0 mm 4 mps 717 mmHg 71%
    20:00 -9°C° 0 mm 4 mps 717 mmHg 75%
    21:00 -9°C° 0 mm 4 mps 717 mmHg 76%
    22:00 -9°C° 0 mm 4 mps 717 mmHg 76%
    23:00 -9°C° 0 mm 4 mps 717 mmHg 77%
    Show more